CW2613 Weather Reports


Display with metric or nautical units.
time (UTC)temp
F
wind
direction
speed
MPH
gust
MPH
rain 1hr
in
rain 24hr
in
rain mn
in
humidity
%
barometer
mb
20180226012707 69 169 0.0 0.0 0.00 0.00 0.00 91 1020.6
20180226011209 69 169 0.0 0.0 0.00 0.00 0.00 90 1020.5
20180226005702 70 169 0.0 0.0 0.00 0.00 0.00 89 1020.3
20180226004202 71 169 0.0 0.0 0.00 0.00 0.00 88 1020.2
20180226002702 71 169 0.0 0.0 0.00 0.00 0.00 86 1020.0
20180226001200 72 169 0.0 0.0 0.00 0.00 0.00 84 1019.8
20180225235659 73 185 0.0 0.0 0.00 0.00 0.00 83 1019.7
20180225234200 74 184 0.0 1.0 0.00 0.00 0.00 79 1019.7
20180225232657 75 189 0.0 0.0 0.00 0.00 0.00 77 1019.6
20180225231158 76 189 0.0 0.0 0.00 0.00 0.00 74 1019.6
20180225225656 77 57 0.0 2.0 0.00 0.00 0.00 72 1019.5
20180225224155 78 60 0.0 2.0 0.00 0.00 0.00 69 1019.4
20180225222654 79 63 0.0 4.0 0.00 0.00 0.00 66 1019.3
20180225221155 79 13 0.0 1.0 0.00 0.00 0.00 63 1019.2
20180225215652 80 51 0.0 3.0 0.00 0.00 0.00 62 1019.1
20180225214151 81 45 0.0 3.0 0.00 0.00 0.00 59 1019.0
20180225212654 81 3 0.0 3.0 0.00 0.00 0.00 60 1019.0
20180225211151 82 177 0.0 4.0 0.00 0.00 0.00 58 1018.9
20180225205650 83 53 1.0 5.0 0.00 0.00 0.00 58 1018.9
20180225204150 85 28 0.0 2.0 0.00 0.00 0.00 56 1018.9
20180225202649 87 9 0.0 6.0 0.00 0.00 0.00 53 1018.9
20180225201151 89 57 0.0 2.0 0.00 0.00 0.00 51 1018.9
20180225195646 90 65 0.0 4.0 0.00 0.00 0.00 50 1019.1
20180225194147 93 350 0.0 5.0 0.00 0.00 0.00 45 1019.1
20180225192646 92 57 0.0 2.0 0.00 0.00 0.00 47 1019.3
20180225191147 91 161 0.0 3.0 0.00 0.00 0.00 47 1019.3
20180225185640 90 140 0.0 0.0 0.00 0.00 0.00 44 1019.6
20180225184139 93 139 0.0 2.0 0.00 0.00 0.00 44 1019.6
20180225182636 91 292 0.0 6.0 0.00 0.00 0.00 42 1019.8
20180225181133 92 229 0.0 2.0 0.00 0.00 0.00 46 1020.0
20180225175629 90 39 0.0 0.0 0.00 0.00 0.00 49 1020.3
20180225174131 90 330 0.0 1.0 0.00 0.00 0.00 47 1020.5
20180225172632 89 133 0.0 4.0 0.00 0.00 0.00 49 1020.6
20180225171129 89 167 0.0 5.0 0.00 0.00 0.00 50 1020.8
20180225165627 89 177 0.0 4.0 0.00 0.00 0.00 50 1021.1
20180225164122 88 214 0.0 7.0 0.00 0.00 0.00 52 1021.4
20180225162621 86 124 0.0 6.0 0.00 0.00 0.00 53 1021.6
20180225161121 87 68 0.0 6.0 0.00 0.00 0.00 52 1021.7
20180225155616 86 152 0.0 3.0 0.00 0.00 0.00 53 1021.7
20180225154113 85 16 0.0 2.0 0.00 0.00 0.00 58 1021.8
20180225152610 82 130 0.0 4.0 0.00 0.00 0.00 66 1021.9
20180225151105 79 334 0.0 3.0 0.00 0.00 0.00 73 1021.9
20180225145602 78 159 0.0 4.0 0.00 0.00 0.00 73 1022.0
20180225144100 77 169 0.0 3.0 0.00 0.00 0.00 78 1021.9
20180225142555 73 124 0.0 3.0 0.00 0.00 0.00 93 1021.9
20180225141052 71 302 0.0 2.0 0.00 0.00 0.00 98 1021.8
20180225135549 70 160 0.0 0.0 0.00 0.00 0.00 99 1021.8
20180225134044 69 150 0.0 0.0 0.00 0.00 0.00 99 1021.6
20180225132545 68 169 0.0 0.0 0.00 0.00 0.00 99 1021.6
20180225131040 66 169 0.0 0.0 0.00 0.00 0.00 99 1021.4
20180225125534 64 169 0.0 0.0 0.00 0.00 0.00 99 1021.3
20180225124033 62 169 0.0 0.0 0.00 0.00 0.00 98 1021.2
20180225122530 62 169 0.0 0.0 0.00 0.00 0.00 98 1021.0
20180225121032 61 169 0.0 0.0 0.00 0.00 0.00 98 1020.9
20180225115530 61 169 0.0 0.0 0.00 0.00 0.00 98 1020.8
20180225114028 62 169 0.0 0.0 0.00 0.00 0.00 98 1020.8
20180225112526 62 169 0.0 0.0 0.00 0.00 0.00 98 1020.8
20180225111026 62 169 0.0 0.0 0.00 0.00 0.00 98 1020.7
20180225105524 63 169 0.0 0.0 0.00 0.00 0.00 98 1020.7
20180225104024 63 169 0.0 0.0 0.00 0.00 0.00 98 1020.6
20180225102524 62 169 0.0 0.0 0.00 0.00 0.00 98 1020.6
20180225101024 62 169 0.0 0.0 0.00 0.00 0.00 98 1020.6
20180225095524 63 169 0.0 0.0 0.00 0.00 0.00 98 1020.5
20180225094021 62 169 0.0 0.0 0.00 0.00 0.00 98 1020.5
20180225092620 61 169 0.0 0.0 0.00 0.00 0.00 98 1020.5
20180225091021 61 169 0.0 0.0 0.00 0.00 0.00 98 1020.4
20180225085517 62 169 0.0 0.0 0.00 0.00 0.00 98 1020.4
20180225084015 62 169 0.0 0.0 0.00 0.00 0.00 98 1020.6
20180225082516 62 169 0.0 0.0 0.00 0.00 0.00 98 1020.6
20180225081014 62 169 0.0 0.0 0.00 0.00 0.00 98 1020.6
20180225075511 62 169 0.0 0.0 0.00 0.00 0.00 98 1020.7
20180225074013 62 169 0.0 0.0 0.00 0.00 0.00 97 1020.7
20180225072509 63 169 0.0 0.0 0.00 0.00 0.00 98 1020.6
20180225071007 63 169 0.0 0.0 0.00 0.00 0.00 97 1020.6
20180225065507 63 169 0.0 0.0 0.00 0.00 0.00 98 1020.7
20180225064007 63 169 0.0 0.0 0.00 0.00 0.00 98 1021.0
20180225062504 63 169 0.0 0.0 0.00 0.00 0.00 97 1020.8
20180225061006 63 169 0.0 0.0 0.00 0.00 0.00 97 1020.8
20180225055504 63 169 0.0 0.0 0.00 0.00 0.00 97 1020.7
20180225053959 64 169 0.0 0.0 0.00 0.00 0.00 97 1020.7
20180225052500 64 169 0.0 0.0 0.00 0.00 0.00 97 1020.7
20180225050956 64 169 0.0 0.0 0.00 0.00 0.00 97 1020.7
20180225045456 63 169 0.0 0.0 0.00 0.01 0.00 97 1020.8
20180225043954 64 169 0.0 0.0 0.00 0.01 0.00 97 1020.8
20180225042454 64 169 0.0 0.0 0.00 0.01 0.00 97 1020.7
20180225040952 65 169 0.0 0.0 0.00 0.01 0.00 97 1020.7
20180225035452 65 169 0.0 0.0 0.00 0.09 0.00 97 1020.8
20180225033950 65 169 0.0 0.0 0.00 0.09 0.00 97 1020.8
20180225032452 65 169 0.0 0.0 0.00 0.09 0.00 96 1020.8
20180225030949 65 169 0.0 0.0 0.00 0.09 0.00 96 1020.8
20180225025451 65 169 0.0 0.0 0.00 0.09 0.00 96 1020.9
20180225023950 65 169 0.0 0.0 0.00 0.09 0.00 96 1020.8
20180225022451 65 169 0.0 0.0 0.00 0.09 0.00 95 1021.0
20180225021044 66 169 0.0 0.0 0.00 0.09 0.00 95 1020.9
20180225015441 66 169 0.0 0.0 0.00 0.09 0.00 94 1020.8